{"data":{"norad_id":20580,"epoch":"2026-05-24T22:21:22.298976Z","epoch_age_seconds":91033,"freshness":"FRESH","line1":"1 20580U 90037B   26144.93150809  .00005711  00000+0  18067-3 0  9994","line2":"2 20580  28.4734 239.4838 0001255 242.4756 117.5713 15.30477719785004","mean_motion":15.30477719,"eccentricity":0.0001255,"inclination_deg":28.4734,"raan_deg":239.4838,"arg_perigee_deg":242.4756,"mean_anomaly_deg":117.5713,"bstar":0.00018067,"rev_number":78500,"period_min":94.088269441837,"perigee_km":473.5259843046,"apogee_km":475.24596757156,"semimajor_km":6852.5229759381,"source":"CELESTRAK","updated_at":"2026-05-25T13:38:24.606166Z"}}